Paynesville, MN

6:38 PM CDT on September 21, 2017 (GMT -0500)
Paynesville

Weather History for KPEX - November, 2012

Change the Weather History Date:

Friday, November 2, 2012

  Actual Average (KLJF) Record (KLJF)
Temperature  
Mean Temperature 29 °F -  
Max Temperature 35 °F 48 °F 73 °F (1978)
Min Temperature 23 °F 30 °F 3 °F (1951)
Degree Days  
Heating Degree Days 36    
Moisture  
Dew Point 24 °F    
Average Humidity 76    
Maximum Humidity 89    
Minimum Humidity 65    
Precipitation  
Precipitation 0.00 in - - ()
Sea Level Pressure  
Sea Level Pressure 30.12 in    
Wind  
Wind Speed 1 mph (ENE)    
Max Wind Speed 8 mph    
Max Gust Speed -    
Visibility 10 miles    
Events      
Averages and records for this station are not official NWS values.
T = Trace of Precipitation, MM = Missing Value Source: NWS Daily Summary

Daily Weather History Graph

Daily Weather History Graph

Search for Another Location

Airport or City:

Trip Planner

Search our weather history database for the weather conditions in past years. The results will help you decide how hot, cold, wet, or windy it might be!

Date:

Astronomy

Nov. 02, 2012 Rise Set
Actual Time 8:00 AM CDT 6:04 PM CDT
Civil Twilight 7:29 AM CDT 6:35 PM CDT
Nautical Twilight 6:54 AM CDT 7:10 PM CDT
Astronomical Twilight 6:19 AM CDT 7:44 PM CDT
Moon 8:46 PM CDT (11/2) 11:27 AM CDT (11/2)
Length of Visible Light 11h 05m
Length of Day
10h 03m
Waning Gibbous, 87% of the Moon is Illuminated
Nov 2
Waning Gibbous
Nov 6
Last Quarter
Nov 13
New
Nov 20
First Quarter
Nov 28
Full

Hourly Weather History & Observations

Time (CDT) Temp. Windchill Dew Point Humidity Pressure Visibility Wind Dir Wind Speed Gust Speed Precip Events Conditions
12:13 AM 26.4 °F - 20.7 °F 79% 30.07 in 10.0 mi Calm Calm - N/A   Clear
12:33 AM 26.1 °F - 20.7 °F 80% 30.08 in 10.0 mi Calm Calm - N/A   Clear
12:53 AM 25.5 °F - 20.1 °F 80% 30.09 in 10.0 mi Calm Calm - N/A   Clear
1:13 AM 24.3 °F - 19.9 °F 84% 30.09 in 10.0 mi Calm Calm - N/A   Clear
1:34 AM 24.8 °F 20.5 °F 20.8 °F 85% 30.09 in 10.0 mi NNE 3.5 mph - N/A   Clear
1:54 AM 25.3 °F 19.7 °F 20.8 °F 83% 30.08 in 10.0 mi NNE 4.6 mph - N/A   Clear
2:13 AM 24.8 °F - 20.7 °F 84% 30.09 in 10.0 mi Calm Calm - N/A   Clear
2:33 AM 24.6 °F - 20.7 °F 85% 30.09 in 10.0 mi Calm Calm - N/A   Clear
2:54 AM 24.6 °F - 21.0 °F 86% 30.09 in 10.0 mi Calm Calm - N/A   Clear
3:13 AM 23.9 °F - 20.5 °F 87% 30.09 in 10.0 mi Calm Calm - N/A   Clear
3:33 AM 23.9 °F - 20.3 °F 86% 30.09 in 10.0 mi Calm Calm - N/A   Clear
3:54 AM 23.7 °F - 20.7 °F 88% 30.09 in 10.0 mi Calm Calm - N/A   Clear
4:14 AM 23.9 °F - 21.0 °F 89% 30.09 in 10.0 mi Calm Calm - N/A   Clear
4:33 AM 24.3 °F - 21.2 °F 88% 30.09 in 10.0 mi Calm Calm - N/A   Clear
4:53 AM 24.4 °F - 21.6 °F 89% 30.09 in 10.0 mi Calm Calm - N/A   Clear
5:13 AM 25.0 °F - 22.1 °F 89% 30.09 in 10.0 mi Calm Calm - N/A   Clear
5:34 AM 25.3 °F - 22.5 °F 89% 30.09 in 10.0 mi Calm Calm - N/A   Clear
5:53 AM 25.2 °F - 22.1 °F 88% 30.10 in 10.0 mi Calm Calm - N/A   Clear
6:13 AM 25.0 °F - 22.3 °F 89% 30.09 in 10.0 mi Calm Calm - N/A   Clear
6:33 AM 25.7 °F - 23.0 °F 89% 30.10 in 10.0 mi Calm Calm - N/A   Clear
6:54 AM 25.7 °F - 23.0 °F 89% 30.11 in 10.0 mi Calm Calm - N/A   Clear
7:13 AM 26.1 °F - 23.0 °F 88% 30.10 in 10.0 mi Calm Calm - N/A   Clear
7:34 AM 26.4 °F - 23.4 °F 88% 30.11 in 10.0 mi Calm Calm - N/A   Clear
7:53 AM 26.6 °F - 23.7 °F 89% 30.11 in 10.0 mi Calm Calm - N/A   Clear
8:13 AM 27.1 °F - 23.9 °F 88% 30.11 in 10.0 mi Calm Calm - N/A   Mostly Cloudy
8:34 AM 27.3 °F - 23.9 °F 87% 30.13 in 10.0 mi Calm Calm - N/A   Mostly Cloudy
8:53 AM 27.5 °F - 24.3 °F 88% 30.13 in 10.0 mi Calm Calm - N/A   Scattered Clouds
9:13 AM 28.0 °F - 24.8 °F 88% 30.13 in 10.0 mi Calm Calm - N/A   Clear
9:33 AM 29.5 °F 24.5 °F 25.5 °F 85% 30.14 in 10.0 mi ENE 4.6 mph - N/A   Clear
9:53 AM 30.6 °F 23.1 °F 25.3 °F 81% 30.15 in 10.0 mi ENE 8.1 mph - N/A   Clear
10:14 AM 30.7 °F 23.3 °F 24.8 °F 79% 30.14 in 10.0 mi ENE 8.1 mph - N/A   Mostly Cloudy
10:33 AM 30.7 °F 24.1 °F 24.3 °F 77% 30.15 in 10.0 mi ENE 6.9 mph - N/A   Overcast
10:53 AM 31.5 °F 28.1 °F 24.4 °F 75% 30.16 in 10.0 mi East 3.5 mph - N/A   Overcast
11:13 AM 31.8 °F 26.2 °F 25.0 °F 76% 30.16 in 10.0 mi NE 5.8 mph - N/A   Mostly Cloudy
11:33 AM 31.8 °F 27.3 °F 24.8 °F 75% 30.15 in 10.0 mi ENE 4.6 mph - N/A   Scattered Clouds
11:54 AM 32.0 °F 28.7 °F 25.0 °F 75% 30.16 in 10.0 mi East 3.5 mph - N/A   Scattered Clouds
12:13 PM 32.0 °F - 24.6 °F 74% 30.16 in 10.0 mi Calm Calm - N/A   Scattered Clouds
12:33 PM 32.2 °F - 24.8 °F 74% 30.16 in 10.0 mi Calm Calm - N/A   Clear
12:53 PM 32.9 °F 28.5 °F 25.0 °F 73% 30.16 in 10.0 mi ESE 4.6 mph - N/A   Scattered Clouds
1:13 PM 33.1 °F - 24.8 °F 72% 30.15 in 10.0 mi Calm Calm - N/A   Mostly Cloudy
1:33 PM 33.1 °F - 24.6 °F 71% 30.15 in 10.0 mi Calm Calm - N/A   Scattered Clouds
1:53 PM 33.8 °F 30.8 °F 24.8 °F 70% 30.14 in 10.0 mi NE 3.5 mph - N/A   Clear
2:13 PM 33.8 °F - 24.8 °F 70% 30.14 in 10.0 mi Calm Calm - N/A   Mostly Cloudy
2:34 PM 33.8 °F - 24.6 °F 69% 30.13 in 10.0 mi Calm Calm - N/A   Overcast
2:53 PM 34.0 °F - 24.8 °F 69% 30.13 in 10.0 mi Calm Calm - N/A   Overcast
3:13 PM 34.5 °F - 25.0 °F 68% 30.12 in 10.0 mi Calm Calm - N/A   Overcast
3:34 PM 34.7 °F - 24.8 °F 67% 30.12 in 10.0 mi Calm Calm - N/A   Overcast
3:53 PM 34.7 °F - 24.8 °F 67% 30.12 in 10.0 mi Calm Calm - N/A   Overcast
4:13 PM 34.9 °F 29.9 °F 24.8 °F 67% 30.11 in 10.0 mi NE 5.8 mph - N/A   Overcast
4:34 PM 34.9 °F 32.0 °F 24.3 °F 65% 30.12 in 10.0 mi ENE 3.5 mph - N/A   Overcast
4:53 PM 34.7 °F - 24.3 °F 66% 30.13 in 10.0 mi Calm Calm - N/A   Overcast
5:13 PM 35.1 °F - 24.4 °F 65% 30.13 in 10.0 mi Calm Calm - N/A   Overcast
5:34 PM 35.1 °F 30.1 °F 24.3 °F 65% 30.11 in 10.0 mi East 5.8 mph - N/A   Overcast
5:53 PM 34.9 °F 32.0 °F 24.3 °F 65% 30.11 in 10.0 mi East 3.5 mph - N/A   Overcast
6:14 PM 34.9 °F 30.8 °F 24.4 °F 66% 30.11 in 10.0 mi East 4.6 mph - N/A   Overcast
6:33 PM 34.9 °F 32.0 °F 24.6 °F 66% 30.13 in 10.0 mi East 3.5 mph - N/A   Overcast
6:53 PM 34.9 °F 30.8 °F 24.6 °F 66% 30.13 in 10.0 mi NE 4.6 mph - N/A   Overcast
7:14 PM 34.9 °F 29.9 °F 24.3 °F 65% 30.13 in 10.0 mi ENE 5.8 mph - N/A   Overcast
7:33 PM 34.9 °F - 24.4 °F 66% 30.14 in 10.0 mi Calm Calm - N/A   Overcast
7:53 PM 34.7 °F - 23.9 °F 65% 30.15 in 10.0 mi Calm Calm - N/A   Overcast
8:13 PM 34.7 °F - 24.6 °F 67% 30.15 in 10.0 mi Calm Calm - N/A   Overcast
8:33 PM 34.7 °F - 24.4 °F 66% 30.15 in 10.0 mi Calm Calm - N/A   Overcast
8:53 PM 34.5 °F - 24.6 °F 67% 30.16 in 10.0 mi Calm Calm - N/A   Overcast
9:13 PM 34.3 °F - 24.4 °F 67% 30.15 in 10.0 mi Calm Calm - N/A   Overcast
9:33 PM 34.7 °F 29.6 °F 24.6 °F 67% 30.14 in 10.0 mi East 5.8 mph - N/A   Overcast
9:54 PM 34.7 °F - 24.3 °F 66% 30.15 in 10.0 mi Calm Calm - N/A   Overcast
10:13 PM 34.7 °F - 24.6 °F 67% 30.15 in 10.0 mi Calm Calm - N/A   Overcast
10:33 PM 34.7 °F - 24.4 °F 66% 30.15 in 10.0 mi Calm Calm - N/A   Overcast
10:53 PM 34.2 °F - 25.2 °F 70% 30.16 in 10.0 mi Calm Calm - N/A   Overcast
11:13 PM 34.3 °F - 25.0 °F 69% 30.16 in 10.0 mi Calm Calm - N/A   Overcast
11:33 PM 34.0 °F - 26.1 °F 73% 30.17 in 10.0 mi Calm Calm - N/A   Overcast
11:53 PM 34.0 °F - 25.7 °F 72% 30.16 in 10.0 mi Calm Calm - N/A   Overcast